Overview Statistics Trail Chart Weather Telemetry Raw packets
 

This is the latest recevied weather packets stored in our database for station/object N7IGG. If no packets are shown the sender has not sent any weather packets the latest 10 day(s).

<< 15 16 17 18 19 20 21 >>
Time Temp. Humidity Pressure Rain* Wind** Luminosity Snow
1778085666 11.11° C 97% 1020.5 hPa 0 mm - 40 W/m² -
1778085361 11.11° C 97% 1020.5 hPa 0 mm - 38 W/m² -
1778085058 11.11° C 97% 1020.5 hPa 0 mm - 42 W/m² -
1778084754 11.11° C 97% 1020.3 hPa 0 mm - 45 W/m² -
1778084451 11.11° C 97% 1020.4 hPa 0 mm - 43 W/m² -
1778084149 11.11° C 97% 1020.2 hPa 0 mm - 48 W/m² -
1778083845 11.11° C 97% 1020 hPa 0 mm - 56 W/m² -
1778083543 11.11° C 97% 1019.8 hPa 0 mm - 60 W/m² -
1778083240 11.11° C 97% 1019.7 hPa 0 mm - 62 W/m² -
1778082938 11.11° C 97% 1020 hPa 0 mm - 60 W/m² -
1778081829 11.11° C 97% 1020.2 hPa 0 mm - 45 W/m² -
1778081527 11.11° C 97% 1020.5 hPa 0 mm - 37 W/m² -
1778081223 11.11° C 97% 1020.3 hPa 0 mm - 27 W/m² -
1778080921 11.11° C 97% 1020.4 hPa 0 mm - 23 W/m² -
1778080620 11.11° C 97% 1020.2 hPa 0 mm - 31 W/m² -
1778080316 11.11° C 97% 1020.2 hPa 0 mm - 28 W/m² -
1778080013 11.11° C 97% 1020.1 hPa 0 mm - 38 W/m² -
1778079710 11.11° C 97% 1019.7 hPa 0.51 mm - 37 W/m² -
1778079407 11.11° C 97% 1019.9 hPa 0.51 mm - 35 W/m² -
1778079103 11.11° C 96% 1020 hPa 0 mm - 28 W/m² -
1778078801 11.11° C 96% 1020.1 hPa 0 mm - 20 W/m² -
1778078497 11.11° C 96% 1020 hPa 0 mm - 17 W/m² -
1778078195 11.11° C 96% 1020.2 hPa 0 mm - 11 W/m² -
1778077893 11.11° C 96% 1020.4 hPa 0 mm - 9 W/m² -
1778077592 11.11° C 96% 1020 hPa 0 mm - 7 W/m² -

* Rain latest hour (hover to see other rain measurements)
** Current wind speed in m/s (hover to see current wind gust speed)